JAS-2 (FO-29) (24278 NORAD) Tracking and Keplerian Element Data

This shows tracking and keplerian element data for the satellite.

Feedback or suggestion? Click here.




ElementValue
Catalog24278
NameJAS-2 (FO-29)
Epoch Orbit39033
Epoch Day286.75433502
Epoch Year2024
RAAN206.0001
Inclination98.5816
Eccentricity0.0348946
Argument of Perigee243.6784
Mean Anonmoly112.8127
Mean Motion13.53216657
Decay Rate6.8E-07
L11 24278U 96046B 24286.75433502 .00000068 00000+0 10751-3 0 9999
L22 24278 98.5816 206.0001 0348946 243.6784 112.8127 13.53216657390338



Live tracking and technical data element details for JAS-2 (FO-29) (NORAD 24278). JAS-2 (FO-29) can be tracked NOW for your location showing map with azimuth and elevation plus other details from your city location.







IsCatalogInMostPopularTable: catalog: 24278, numindb: 513
Update: records affected: 1



GetName: 24278 JAS-2 (FO-29)

Hit Count: updated at: Thu, 23 Jan 2025 18:22:01 GMT